Regional Weather Roundup
Issued by NWS

Home | Current Version | Previous Version | Graphics & Text | Print | Product List | Glossary On
Versions: 1 2 3 4 5 6 7 8 9 10 11 12 13 14 15 16 17 18 19 20 21 22 23 24 25 26 27 28 29 30 31 32 33 34 35 36 37 38 39 40 41 42 43 44 45 46 47 48 49 50
000
ASUS43 KBIS 301410
RWRND

NORTH DAKOTA REGIONAL WEATHER ROUNDUP
NATIONAL WEATHER SERVICE BISMARCK ND
900 AM CDT SUN AUG 30 2015

NOTE: "FAIR" INDICATES FEW OR NO CLOUDS BELOW 12,000 FEET WITH NO
SIGNIFICANT WEATHER AND/OR OBSTRUCTIONS TO VISIBILITY.


NDZ001>003-009>011-017-301500-
NORTHWEST NORTH DAKOTA

CITY           SKY/WX    TMP DP  RH WIND       PRES   REMARKS
WILLISTON      PTSUNNY   70  54  56 CALM      29.64F
MINOT          CLOUDY    72  59  63 SE5       29.65F
MINOT AFB      CLOUDY    64  64  99 CALM      29.64F
$$

NDZ018>021-031>035-040>046-301500-
SOUTHWEST NORTH DAKOTA

CITY           SKY/WX    TMP DP  RH WIND       PRES   REMARKS
BISMARCK       MOSUNNY   70  62  76 SE8       29.73F
GARRISON         N/A     70  61  73 SE6       29.70F
HETTINGER ARPT PTSUNNY   70  49  47 VRB3      29.76S
$$

NDZ004>008-012>016-024-026-027-054-301500-
NORTHEAST NORTH DAKOTA

CITY           SKY/WX    TMP DP  RH WIND       PRES   REMARKS
GRAND FORKS    PTSUNNY   64  63  94 S14G21    29.77S
GRND FRKS AFB  CLOUDY    66  65  97 S16       29.77S
DEVILS LAKE    SUNNY     72  61  68 SE10      29.73S
$$

NDZ022-023-025-028>030-036>039-047>053-301500-
SOUTHEAST NORTH DAKOTA

CITY           SKY/WX    TMP DP  RH WIND       PRES   REMARKS
FARGO          SUNNY     67  62  84 S15       29.83S
JAMESTOWN      MOSUNNY   66  64  93 S13       29.79S
$$



USA.gov is the U.S. government's official web portal to all federal, state and local government web resources and services.